Location: Pedholt
(56.0260°N, 10.2097°E)
Time: 13:22:36
(UTC+00:00)

Tiros 1 - Pass Details

Date: 06 August 2021
Orbit: 630 x 663 km, 48.4° (Epoch: 23 September)

Event Time Altitude Azimuth Distance (km) Brightness Sun altitude
Rises 16:49:48 0° 235° (SW) 2,987 11.4 18.5°
Reaches altitude 10° 16:52:24 10° 223° (SW) 2,073 10.5 18.2°
Maximum altitude 16:56:28 28° 165° (SSE) 1,225 8.6 17.6°
Drops below altitude 10° 17:00:31 10° 107° (ESE) 2,062 9.2 17.0°
Sets 17:03:05 0° 96° (E) 2,968 9.9 16.7°
